Forks, WA

7:29 PM PST on February 19, 2017 (GMT -0800)
Quillayute

Weather History for KUIL - October, 2014

Change the Weather History Date:

Monday, October 13, 2014

  Actual Average Record
Temperature  
Mean Temperature 57 °F 50 °F  
Max Temperature 62 °F 59 °F 73 °F (1982)
Min Temperature 51 °F 42 °F 30 °F (1966)
Degree Days  
Heating Degree Days 8 14  
Month to date heating degree days 77 170  
Since 1 July heating degree days 466 795  
Cooling Degree Days 0 0  
Month to date cooling degree days 0 0  
Year to date cooling degree days 25 19  
Growing Degree Days 6 (Base 50)    
Moisture  
Dew Point 54 °F    
Average Humidity 80    
Maximum Humidity 100    
Minimum Humidity 60    
Precipitation  
Precipitation 1.92 in 0.32 in 1.92 in (2014)
Month to date precipitation 2.53 3.46  
Year to date precipitation 62.93 64.00  
Sea Level Pressure  
Sea Level Pressure 29.69 in    
Wind  
Wind Speed 7 mph (South)    
Max Wind Speed 23 mph    
Max Gust Speed 35 mph    
Visibility 3 miles    
Events Fog , Rain    
T = Trace of Precipitation, MM = Missing Value Source: NWS Daily Summary

Daily Weather History Graph

Daily Weather History Graph

Search for Another Location

Airport or City:

Trip Planner

Search our weather history database for the weather conditions in past years. The results will help you decide how hot, cold, wet, or windy it might be!

Date:

Astronomy

Oct. 13, 2014 Rise Set
Actual Time 7:34 AM PDT 6:33 PM PDT
Civil Twilight 7:03 AM PDT 7:04 PM PDT
Nautical Twilight 6:27 AM PDT 7:40 PM PDT
Astronomical Twilight 5:51 AM PDT 8:16 PM PDT
Moon 10:35 PM PDT (10/13) 1:08 PM PDT (10/13)
Length of Visible Light 12h 00m
Length of Day
10h 58m
Waning Gibbous, 69% of the Moon is Illuminated
Oct 13
Waning Gibbous
Oct 15
Last Quarter
Oct 23
New
Oct 30
First Quarter
Nov 6
Full

Hourly Weather History & Observations

Time (PDT) Temp. Dew Point Humidity Pressure Visibility Wind Dir Wind Speed Gust Speed Precip Events Conditions
12:53 AM 55.9 °F 53.1 °F 90% 29.98 in 5.0 mi Calm Calm - N/A   Overcast
1:53 AM 55.9 °F 52.0 °F 87% 29.96 in 5.0 mi Calm Calm - N/A   Overcast
2:53 AM 55.0 °F 53.1 °F 93% 29.91 in 5.0 mi Calm Calm - N/A   Overcast
3:53 AM 57.0 °F 52.0 °F 83% 29.87 in 6.0 mi East 4.6 mph - N/A   Haze
4:53 AM 55.0 °F 51.1 °F 86% 29.83 in 6.0 mi East 5.8 mph - N/A   Mostly Cloudy
5:53 AM 54.0 °F 51.1 °F 90% 29.78 in 6.0 mi East 8.1 mph - N/A   Mostly Cloudy
6:53 AM 54.0 °F 51.1 °F 90% 29.75 in 6.0 mi East 5.8 mph - N/A   Mostly Cloudy
7:53 AM 52.0 °F 50.0 °F 93% 29.76 in 4.0 mi Calm Calm - N/A   Partly Cloudy
8:53 AM 53.1 °F 51.1 °F 93% 29.74 in 4.0 mi Variable 4.6 mph - N/A   Clear
9:53 AM 59.0 °F 48.0 °F 67% 29.71 in 5.0 mi SSE 10.4 mph 18.4 mph N/A   Haze
10:53 AM 61.0 °F 46.9 °F 60% 29.69 in 5.0 mi SSE 13.8 mph 26.5 mph N/A   Haze
11:53 AM 60.1 °F 50.0 °F 69% 29.67 in 3.0 mi SSE 12.7 mph 23.0 mph 0.00 in Rain Light Rain
12:07 PM 57.9 °F 52.0 °F 81% 29.66 in 1.8 mi SSE 15.0 mph 32.2 mph 0.00 in Rain Light Rain
12:15 PM 57.9 °F 52.0 °F 81% 29.65 in 3.0 mi SSE 16.1 mph 31.1 mph 0.00 in Rain Light Rain
12:32 PM 57.9 °F 53.1 °F 84% 29.65 in 1.8 mi SSE 17.3 mph 28.8 mph 0.00 in Rain Light Rain
12:41 PM 57.0 °F 54.0 °F 89% 29.65 in 1.2 mi SSE 10.4 mph 28.8 mph 0.01 in Rain Light Rain
12:53 PM 55.4 °F 55.4 °F 100% 29.65 in 0.8 mi SSE 10.4 mph 24.2 mph N/A Rain Light Rain
1:08 PM 55.9 °F 55.0 °F 97% 29.64 in 0.5 mi SSE 10.4 mph 25.3 mph 0.05 in Fog , Rain Rain
1:15 PM 55.9 °F 55.0 °F 97% 29.65 in 0.8 mi SSE 11.5 mph - 0.07 in Rain Rain
1:28 PM 55.9 °F 55.0 °F 97% 29.64 in 1.0 mi SSE 10.4 mph 20.7 mph 0.09 in Rain Light Rain
1:36 PM 57.0 °F 55.9 °F 96% 29.63 in 1.2 mi SSE 13.8 mph 27.6 mph 0.10 in Rain Light Rain
1:48 PM 57.2 °F 55.4 °F 94% 29.63 in 1.2 mi South 12.7 mph 26.5 mph 0.11 in Rain Light Rain
1:53 PM 57.0 °F 55.9 °F 96% 29.64 in 1.2 mi South 12.7 mph 27.6 mph 0.11 in Rain Light Rain
2:24 PM 55.9 °F 55.0 °F 97% 29.63 in 0.8 mi South 10.4 mph 34.5 mph 0.03 in Rain Light Rain
2:53 PM 55.9 °F 55.9 °F 100% 29.66 in 0.8 mi SSW 15.0 mph 29.9 mph 0.11 in Rain Rain
3:53 PM 57.9 °F 57.0 °F 97% 29.66 in 0.5 mi SSW 6.9 mph - 0.44 in Fog , Rain Heavy Rain
4:01 PM 57.9 °F 57.9 °F 100% 29.66 in 0.5 mi WSW 12.7 mph 20.7 mph 0.06 in Fog , Rain Rain
4:06 PM 57.9 °F 57.0 °F 97% 29.66 in 1.0 mi SW 12.7 mph 20.7 mph 0.07 in Rain Light Rain
4:12 PM 57.9 °F 57.0 °F 97% 29.65 in 1.8 mi SSW 4.6 mph 19.6 mph 0.07 in Rain Light Rain
4:18 PM 57.9 °F 57.0 °F 97% 29.65 in 2.0 mi SSW 8.1 mph - 0.08 in Rain Light Rain
4:22 PM 57.9 °F 57.0 °F 97% 29.65 in 1.8 mi South 4.6 mph - 0.08 in Rain Light Rain
4:37 PM 57.0 °F 57.0 °F 100% 29.65 in 1.0 mi South 5.8 mph - 0.10 in Rain Light Rain
4:53 PM 57.0 °F 57.0 °F 100% 29.65 in 1.0 mi SSW 6.9 mph - 0.15 in Rain Rain
5:07 PM 57.9 °F 57.0 °F 97% 29.64 in 1.5 mi South 4.6 mph - 0.02 in Rain Light Rain
5:17 PM 57.9 °F 57.0 °F 97% 29.64 in 1.0 mi SSW 10.4 mph 16.1 mph 0.05 in Rain Rain
5:24 PM 57.9 °F 57.0 °F 97% 29.64 in 1.0 mi SW 11.5 mph - 0.08 in Rain Rain
5:31 PM 57.9 °F 57.0 °F 97% 29.65 in 1.2 mi WSW 10.4 mph - 0.10 in Rain Rain
5:43 PM 57.0 °F 57.0 °F 100% 29.64 in 1.0 mi WSW 10.4 mph - 0.15 in Rain Rain
5:53 PM 57.0 °F 57.0 °F 100% 29.65 in 1.2 mi WSW 8.1 mph - 0.18 in Rain Rain
6:03 PM 57.0 °F 57.0 °F 100% 29.64 in 1.2 mi SW 6.9 mph - 0.03 in Rain Rain
6:11 PM 57.0 °F 57.0 °F 100% 29.65 in 2.0 mi WSW 6.9 mph - 0.04 in Rain Rain
6:51 PM 57.2 °F 55.4 °F 94% 29.66 in 3.0 mi West 6.9 mph - 0.15 in Rain Rain
6:52 PM 57.0 °F 55.9 °F 96% 29.66 in 2.5 mi West 8.1 mph - 0.15 in Rain Rain
7:01 PM 57.0 °F 55.9 °F 96% 29.66 in 1.8 mi WNW 5.8 mph - 0.03 in Rain Rain
7:06 PM 55.9 °F 55.9 °F 100% 29.66 in 2.0 mi WNW 5.8 mph - 0.05 in Rain Rain
7:53 PM 55.4 °F 55.4 °F 100% 29.67 in 3.0 mi SSE 4.6 mph - N/A Rain Light Rain
8:20 PM 55.9 °F 55.0 °F 97% 29.67 in 2.5 mi Calm Calm - 0.05 in Rain Rain
8:31 PM 55.0 °F 55.0 °F 100% 29.67 in 3.0 mi Variable 4.6 mph - 0.07 in Rain Rain
8:53 PM 54.0 °F 53.1 °F 97% 29.67 in 3.0 mi SSE 3.5 mph - 0.11 in Rain Light Rain
9:37 PM 53.1 °F 52.0 °F 96% 29.70 in 1.8 mi Calm Calm - 0.09 in Rain Rain
9:44 PM 53.1 °F 52.0 °F 96% 29.70 in 2.0 mi Calm Calm - 0.11 in Rain Rain
9:51 PM 53.6 °F 51.8 °F 94% 29.70 in 2.5 mi South 9.2 mph - 0.14 in Rain Rain
9:53 PM 53.1 °F 52.0 °F 96% 29.71 in 2.5 mi South 6.9 mph - 0.15 in Rain Rain
10:07 PM 53.1 °F 52.0 °F 96% 29.71 in 2.5 mi Variable 3.5 mph - 0.05 in Rain Rain
10:17 PM 53.1 °F 52.0 °F 96% 29.70 in 3.0 mi ESE 4.6 mph - 0.08 in Rain Rain
10:31 PM 52.0 °F 52.0 °F 100% 29.70 in 2.5 mi East 5.8 mph - 0.12 in Rain Rain
10:51 PM 51.8 °F 51.8 °F 100% 29.70 in 4.0 mi ESE 3.5 mph - 0.16 in Rain Light Rain
10:53 PM 52.0 °F 51.1 °F 97% 29.70 in 5.0 mi ESE 3.5 mph - 0.16 in Rain Light Rain
11:10 PM 52.0 °F 51.1 °F 97% 29.71 in 5.0 mi ESE 3.5 mph - 0.01 in Rain Light Rain
11:41 PM 52.0 °F 51.1 °F 97% 29.71 in 1.8 mi NNW 3.5 mph - 0.05 in Rain Rain
11:53 PM 52.0 °F 51.1 °F 97% 29.71 in 2.5 mi North 4.6 mph - 0.08 in Rain Rain